www.pogodaiklimat.ru

Погода и климат >> Архив погоды >> Австралия >> Северная территория >> Кинтор


ПОГОДА в Кинторе

  • Прогноз погоды в Кинторе
  • Монитор погоды в Кинторе

АРХИВ ПОГОДЫ в Кинторе

Время (UTC), дата Ветер
(напр.,м/с)
 
Видим.   Явления Облачность Т
(С)
Тd
(С)
f
(%)
Тe
(С)
Тes
(С)
Комфортность P
(гПа)
Po
(гПа)
Тmin
(С)
Tmax
(С)
R
(мм)
R24
(мм)
S
(см)
02 17.03 С 6 н/о н/о +36.6 -1.4 9 +33 +33 жарко 1010.6 960.0 +28.4
05 17.03 СЗ 4 н/о н/о +38.1 -0.3 9 +34 +34 очень
жарко
1007.6 957.2
08 17.03 ЮЗ 5 н/о н/о +36.9 +1.6 11 +33 +33 жарко 1007.2 956.8
11 17.03 ЮВ 5 н/о н/о +34.7 +2.3 13 +32 +32 жарко 1008.6 958.1
14 17.03 ЮВ 9 н/о н/о +31.8 +1.0 14 +29 +29 жарко 1009.5 959.0 +39.6
17 17.03 В 8 н/о н/о +30.5 0.0 14 +28 +28 жарко 1009.2 958.7
20 17.03 В 6 н/о н/о +27.1 -3.7 13 +24 +24 комфорт 1009.9 959.3
23 17.03 В 9 н/о н/о +31.4 -6.8 8 +27 +27 жарко 1010.9 960.3
02 18.03 СВ 7 н/о н/о +37.0 -6.5 6 +33 +33 жарко 1010.1 959.5 +26.8
05 18.03 В 4 н/о н/о +38.6 -3.3 7 +34 +34 очень
жарко
1007.0 956.6
08 18.03 В 4 н/о н/о +38.2 -3.6 7 +34 +34 очень
жарко
1006.4 956.0
11 18.03 Ю 3 н/о н/о +31.9 -2.2 11 +28 +28 жарко 1008.3 957.8
14 18.03 В 9 н/о н/о +34.1 -0.5 11 +31 +31 жарко 1009.0 958.5 +40.2
17 18.03 В 7 н/о н/о +30.2 -1.2 13 +27 +27 жарко 1008.0 957.5
20 18.03 В 6 н/о н/о +27.4 -1.5 15 +25 +25 комфорт 1008.3 957.8
23 18.03 СВ 8 н/о н/о +32.4 -1.8 11 +29 +29 жарко 1010.1 959.5
02 19.03 СВ 6 н/о н/о +37.5 -2.3 8 +33 +33 жарко 1009.4 958.9 +27.1
05 19.03 В 5 н/о н/о +39.8 -2.4 7 +36 +36 очень
жарко
1006.3 955.9
08 19.03 Ю 4 н/о н/о +39.1 -1.1 8 +35 +35 очень
жарко
1006.0 955.6
11 19.03 ЮВ 3 н/о н/о +33.0 -1.4 11 +29 +29 жарко 1007.7 957.3
14 19.03 В 9 н/о н/о +34.0 -0.6 11 +30 +30 жарко 1008.4 957.9 +41.2
17 19.03 В 8 н/о н/о +30.9 +0.3 14 +28 +28 жарко 1007.7 957.3
20 19.03 В 7 н/о н/о +28.9 +1.4 17 +27 +27 жарко 1008.4 957.9
23 19.03 В 8 н/о н/о +33.1 +1.0 13 +30 +30 жарко 1010.3 959.7
02 20.03 СВ 6 н/о н/о +39.2 +0.6 9 +35 +35 очень
жарко
1009.3 958.8 +28.2
05 20.03 В 6 н/о н/о +40.6 0.0 8 +37 +37 очень
жарко
1006.5 956.1
08 20.03 ЮВ 4 н/о н/о +40.1 -0.4 8 +36 +36 очень
жарко
1006.2 955.8
11 20.03 В 7 н/о н/о +36.3 -0.2 10 +33 +33 жарко 1008.2 957.7
14 20.03 В 9 н/о н/о +34.3 +0.8 12 +31 +31 жарко 1008.7 958.2 +41.7
17 20.03 В 7 н/о н/о +30.7 +1.1 15 +28 +28 жарко 1008.0 957.5
20 20.03 В 8 н/о н/о +29.7 +2.1 17 +27 +27 жарко 1008.2 957.7
23 20.03 В 9 н/о н/о +32.9 +1.9 14 +30 +30 жарко 1010.2 959.6
02 21.03 СВ 6 н/о н/о +38.7 +1.6 10 +35 +35 очень
жарко
1008.8 958.3 +28.1
05 21.03 В 6 н/о н/о +41.4 -1.3 7 +37 +37 очень
жарко
1005.9 955.5
11 21.03 В 6 н/о н/о +37.2 +0.5 10 +34 +34 очень
жарко
1007.0 956.6
17 21.03 В 6 н/о н/о +30.6 +2.8 17 +28 +28 жарко 1007.0 956.6
23 21.03 СВ 10 н/о н/о +33.9 +2.7 14 +31 +31 жарко 1008.7 958.2
02 22.03 СВ 7 н/о н/о +39.1 +0.5 9 +35 +35 очень
жарко
1007.7 957.3 +29.1
05 22.03 В 5 н/о н/о +41.5 -1.2 7 +38 +38 очень
жарко
1004.1 953.8
08 22.03 В 6 н/о н/о +40.0 -0.5 8 +36 +36 очень
жарко
1003.5 953.3
11 22.03 В 4 н/о н/о +33.5 -1.0 11 +30 +30 жарко 1005.3 955.0
14 22.03 В 4 н/о н/о +31.2 -1.5 12 +28 +28 жарко 1005.5 955.2 +42.2
17 22.03 В 6 н/о н/о +32.3 -0.7 12 +29 +29 жарко 1004.4 954.1
20 22.03 В 6 н/о н/о +28.8 +0.5 16 +26 +26 жарко 1004.5 954.2
23 22.03 СВ 7 н/о н/о +34.0 +2.8 14 +31 +31 жарко 1005.3 955.0
02 23.03 С 6 н/о н/о +40.1 +4.0 11 +37 +37 очень
жарко
1004.7 954.4 +28.3
05 23.03 СВ 5 н/о н/о +41.0 +3.4 10 +38 +38 очень
жарко
1002.3 952.1
08 23.03 СВ 4 н/о н/о +40.4 +2.9 10 +37 +37 очень
жарко
1001.9 951.7
11 23.03 В 4 н/о н/о +34.3 +3.0 14 +31 +31 жарко 1003.2 953.0
14 23.03 В 4 н/о н/о +32.9 +4.6 17 +30 +30 жарко 1003.2 953.0 +42.1

 

Местоположение метеостанции Кинтор (Северная территория, Австралия): широта -23.27 долгота 129.37 высота над уровнем моря 455 м.

В архиве по умолчанию представлена погода в Кинторе за последнюю неделю. Архивные данные за месяц целиком и за предыдущие месяцы, начиная с января 2011 года, Вы можете получить, выбрав интересующий диапазон дат из раскрывающегося списка и нажав кнопку "Ввод!".


*Определитесь, кто Вы:
робот инопланетянин человек

Внимание! Время в таблицах - всемирное. Для получения местного времени необходимо прибавить поправку, которая равна 9.5 ч.

Смотрите также архив погоды в соседних городах и на ближайших метеорологических станциях:

Погода в Джайлсе (Западная Австралия, Австралия) (224 км)
Погода в Юларе (Северная территория, Австралия) (270 км)
Погода в Раббит Флат (Северная территория, Австралия) (350 км)
Погода в Уорбертоне (Западная Австралия, Австралия) (425 км)
Погода в Эрнабелле (Южная Австралия, Австралия) (438 км)
Погода на Виноградной ферма (Северная территория, Австралия) (446 км)
Погода в Элис-Спрингсе (Северная территория, Австралия) (464 км)
Погода в Ладжаману (Северная территория, Австралия) (565 км)
Погода в Холс Крик (Западная Австралия, Австралия) (588 км)
Погода в Теннант-Крике (Северная территория, Австралия) (642 км)

Пояснения к столбцам:

Ветер - указаны скорость ветра в м/с - средняя за 10 мин, порывы в срок и между сроками (в фигурных скобках) и направление, откуда дует ветер: С - северный, СВ - северо-восточный, В - восточный, ЮВ - юго-восточный, Ю - южный, ЮЗ - юго-западный, З - западный, СЗ - северо-западный.
Видимость - горизонтальная дальность видимости в метрах или километрах. При видимости от 1 до 10 км при отсутствии осадков обычно наблюдается дымка, при ухудшении видимости до 1 км и менее - туман. В сухую погоду видимость может ухудшаться дымом, пылью или мглою.
Явления - указаны атмосферные явления, наблюдавшиеся в срок или в последний час перед сроком; фигурными скобками обозначены явления, наблюдавшиеся между сроками (за 1-3 часа до срока); квадратными скобками обозначены град или гололедные отложения с указанием их диаметра в мм.
Облачность - указаны через наклонную черту общая и нижняя облачность в баллах и высота нижней границы облаков в метрах; квадратными скобками обозначены формы облаков: Ci - перистые, Cs - перисто-слоистые, Cc - перисто-кучевые, Ac - высококучевые, As - высокослоистые, Sc - слоисто-кучевые, Ns - слоисто-дождевые, Cu - кучевые, Cb - кучево-дождевые. Подробнее классификацию облаков см. в Атласе облаков (PDF).
T - Температура воздуха - температура, измеренная на высоте 2 м над землей.
Td - Температура точки росы - температура, при понижении до которой содержащийся в воздухе водяной пар достигнет насыщения.
f - Относительная влажность воздуха - влажноcть воздуха, измеренная на высоте 2 м над землей.
Te - Эффективная температура - температура, которую ощущает одетый по сезону человек в тени. Характеристика душности погоды. При расчете учитывается влияние влажности воздуха и скорости ветра на теплоощущения человека.
Tes - Эффективная температура на солнце - температура, которую ощущает человек, с поправкой на солнечный нагрев. Характеристика знойности погоды. Зависит от высоты солнца над горизонтом, облачности и скорости ветра. Ночью, в пасмурную погоду, а также при ветре 12 м/с и более поправка равна нулю.
P - Атмосферное давление - приведенное к уровню моря атмосферное давление.
Po - Атмосферное давление - измеренное на уровне метеостанции атмосферное давление.
Tmin - Минимальная температура - минимум температуры воздуха на высоте 2 м над землей.
Tmax - Максимальная температура - максимум температуры воздуха на высоте 2 м над землей.
R - Количество осадков - Количество выпавших осадков за период времени, мм. При наведении курсора мыши на число - период времени, за который выпало указанное количество осадков.
R24 - Количество осадков - Количество выпавших осадков за 24 часа, мм.
S - Снежный покров - Высота снежного покрова, см. При наведении курсора мыши на число - состояние снежного покрова и степень покрытия местности в баллах.